[[{"header":{"parameterUnit":"m.s-1","parameterCategory":2,"la1":30.2991,"la2":30.254,"lo1":-89.0895,"lo2":-89.0444,"dy":0.0017,"dx":0.0017,"nx":28,"ny":28,"refTime":"2025-08-23T21:00:00:Z","depth":"0","parameterNumber":2,"parameterNumberName":"U-component_of_CURRENTS"},"data":[0,0,0,0,0,0,0,0,0,0,0,0,0,0,0,0,0,0,0,0,0,0,0,0,0,0,0,0,0,0,0,0,0,0,0,0,0,0,0,0,0,0,0,0,0,0,0,0,0,0,0,0,0,0,0,0,0,0,-0.1999,-0.2,0,-0.2146,-0.2148,-0.2149,-0.209,-0.2087,-0.2083,-0.208,-0.2114,-0.2118,-0.2123,0,0,0,0,0,0,0,0,0,0,0,0,0,-0.1854,-0.1856,-0.1999,-0.2,-0.2002,-0.2146,-0.2148,-0.215,-0.2091,-0.2087,-0.2082,-0.2078,-0.2113,-0.2118,-0.2123,0,0,0,0,0,0,0,0,0,0,0,0,0,-0.1951,-0.1856,-0.1998,-0.1989,-0.199,-0.2145,-0.2148,-0.215,-0.2092,-0.2087,-0.2081,-0.2076,-0.2111,-0.2117,-0.2124,-0.2269,0,0,-0.2143,-0.2146,0,0,0,0,0,0,0,0,-0.1945,-0.1956,-0.1989,-0.199,-0.1991,-0.2094,-0.2109,-0.2184,-0.2093,-0.2054,-0.208,-0.2074,-0.21,-0.2107,-0.215,-0.2271,-0.2272,-0.2144,-0.2147,-0.215,-0.2152,0,0,0,0,0,0,0,-0.1938,-0.1951,-0.2058,-0.1991,-0.1993,-0.2042,-0.2049,-0.2125,-0.2104,-0.2057,-0.2053,-0.207,-0.2099,-0.2144,-0.215,-0.2273,-0.2143,-0.2149,-0.2153,-0.2155,-0.2323,-0.2323,0,0,0,0,0,0,-0.1915,-0.1944,-0.2053,-0.2062,-0.1954,-0.2048,-0.2056,-0.2067,-0.2105,-0.2107,-0.2074,-0.2067,-0.2136,-0.2142,-0.215,-0.2192,-0.215,-0.2156,-0.216,-0.2322,-0.2323,-0.2323,0,0,0,0,0,0,-0.1912,-0.1923,-0.2047,-0.2006,-0.2024,-0.2055,-0.2069,-0.2072,-0.2102,-0.2119,-0.2117,-0.2097,-0.2132,-0.2141,-0.2194,-0.2197,-0.2159,-0.2165,-0.2321,-0.2322,-0.2323,-0.236,0,0,0,0,0,0,-0.1907,-0.1921,-0.1926,-0.2004,-0.2026,-0.2139,-0.2075,-0.2079,-0.2121,-0.2111,-0.214,-0.2138,-0.2128,-0.2185,-0.2201,-0.2205,-0.217,-0.232,-0.2322,-0.2323,-0.2358,-0.2362,-0.2365,0,0,0,0,0,-0.1901,-0.1938,-0.1925,-0.1939,-0.2029,-0.2142,-0.216,-0.2164,-0.2127,-0.2165,-0.2159,-0.2136,-0.22,-0.2193,-0.2211,-0.2216,-0.232,-0.2321,-0.2323,-0.2356,-0.2361,-0.2365,0,0,0,0,0,0,-0.1879,-0.1938,-0.1925,-0.1974,-0.2047,-0.2131,-0.2176,-0.2182,-0.2219,-0.2198,-0.2186,-0.2188,-0.2218,-0.2232,-0.2223,-0.2262,-0.2243,-0.2248,-0.2262,-0.2267,-0.2271,-0.2265,-0.2175,0,0,0,0,0,-0.1879,-0.1913,-0.1985,-0.2026,-0.2066,-0.2124,-0.2169,-0.2182,-0.2226,-0.2236,-0.2249,-0.2249,-0.2252,-0.2267,-0.2287,-0.2358,-0.2327,-0.2358,-0.2361,-0.2365,-0.2369,-0.2337,-0.2338,-0.2328,-0.2328,-0.2328,0,0,-0.188,-0.1919,-0.1935,-0.2023,-0.208,-0.2158,-0.2139,-0.2225,-0.2256,-0.224,-0.2286,-0.2281,-0.2273,-0.2308,-0.2323,-0.2316,-0.2348,-0.2367,-0.2369,-0.2372,-0.2339,-0.234,-0.234,-0.2329,-0.2329,-0.2329,0,0,-0.1937,-0.1943,-0.2005,-0.2069,-0.2161,-0.2197,-0.2221,-0.2312,-0.2311,-0.2382,-0.2333,-0.2338,-0.2392,-0.2366,-0.2359,-0.2414,-0.2366,-0.2406,-0.2435,-0.2403,-0.2404,-0.2404,-0.2347,-0.2342,-0.2412,-0.2412,-0.2412,0,-0.1939,-0.2008,-0.2047,-0.2134,-0.2178,-0.2212,-0.2293,-0.2325,-0.2406,-0.2407,-0.2388,-0.241,-0.241,-0.2408,-0.2403,-0.2422,-0.2386,-0.2417,-0.2407,-0.2407,-0.2406,-0.2349,-0.2342,-0.2414,-0.2414,-0.2413,-0.2413,0,-0.2055,-0.21,-0.2155,-0.2242,-0.2302,-0.2386,-0.2427,-0.2464,-0.2459,-0.2472,-0.2479,-0.2481,-0.2479,-0.2471,-0.2459,-0.2447,-0.2415,-0.2411,-0.2394,-0.2409,-0.2348,-0.234,-0.2417,-0.2416,-0.2415,-0.2415,0,0,-0.2073,-0.2207,-0.2218,-0.2258,-0.2359,-0.2422,-0.2467,-0.2517,-0.252,-0.2554,-0.2554,-0.2551,-0.2532,-0.2522,-0.2498,-0.2476,-0.2435,-0.2446,-0.2443,-0.2387,-0.2341,-0.2271,-0.2255,-0.2425,-0.2424,-0.2424,-0.2293,0,-0.2146,-0.2297,-0.2339,-0.2442,-0.2514,-0.2535,-0.257,-0.2601,-0.2603,-0.2612,-0.2576,-0.2571,-0.2552,-0.254,-0.2519,-0.2455,-0.2421,-0.247,-0.2338,-0.2334,-0.2267,-0.2247,-0.2154,-0.2026,-0.2285,-0.2284,-0.2283,0,-0.2225,-0.2314,-0.2439,-0.2512,-0.2545,-0.2594,-0.2624,-0.2663,-0.2662,-0.266,-0.2645,-0.2614,-0.2578,-0.2561,-0.2461,-0.249,-0.2421,-0.2371,-0.2364,-0.2284,-0.2251,-0.2056,-0.2002,-0.1992,-0.2271,-0.2272,-0.2273,0,-0.2201,-0.2352,-0.2438,-0.2479,-0.2591,-0.2611,-0.2646,-0.2667,-0.2664,-0.2674,-0.2656,-0.2631,-0.2578,-0.2521,-0.2412,-0.2433,-0.2288,-0.2303,-0.2171,-0.2164,-0.2052,-0.2037,-0.1971,-0.2231,-0.2231,-0.2231,-0.2232,0,-0.2232,-0.2278,-0.243,-0.2477,-0.253,-0.2611,-0.2632,-0.2658,-0.2673,-0.2631,-0.2663,-0.26,-0.2562,-0.247,-0.2406,-0.2248,-0.2275,-0.2163,-0.2127,-0.206,-0.2048,-0.2009,-0.2032,-0.2226,-0.2227,-0.2228,-0.2229,0,-0.2131,-0.2261,-0.2342,-0.2484,-0.2516,-0.2537,-0.259,-0.2586,-0.2632,-0.2574,-0.2564,-0.2543,-0.2428,-0.2374,-0.2253,-0.2198,-0.204,-0.2026,-0.1939,-0.1896,-0.1789,-0.1817,-0.1696,-0.1655,-0.187,-0.1867,-0.1865,0,-0.2078,-0.2126,-0.2295,-0.2323,-0.2368,-0.2422,-0.2432,-0.2529,-0.2503,-0.2496,-0.243,-0.2361,-0.2251,-0.2091,-0.2005,-0.1886,-0.1896,-0.173,-0.1769,-0.1757,-0.1762,-0.1791,-0.1768,-0.1621,-0.1617,-0.1614,-0.1612,0,-0.1925,-0.1995,-0.2057,-0.2145,-0.2187,-0.2228,-0.2247,-0.2243,-0.2303,-0.2277,-0.2184,-0.2124,-0.2,-0.1845,-0.1738,-0.1662,-0.1698,-0.166,-0.1668,-0.1577,-0.1581,-0.1531,-0.173,-0.1583,-0.1586,-0.1588,-0.1589,-0.1591,-0.1756,-0.1756,-0.1858,-0.1907,-0.1957,-0.1974,-0.195,-0.1973,-0.1945,-0.1865,-0.1904,-0.1792,-0.1716,-0.1564,-0.1501,-0.1393,-0.1464,-0.1349,-0.1383,-0.1413,-0.1381,-0.151,-0.1322,-0.1323,-0.1324,-0.1325,-0.1326,0,-0.1564,-0.1584,-0.1602,-0.1678,-0.165,-0.1761,-0.1763,-0.1714,-0.1628,-0.1616,-0.1541,-0.1451,-0.1323,-0.1296,-0.1201,-0.114,-0.1145,-0.1121,-0.1153,-0.1144,-0.1253,-0.1253,-0.1016,-0.1016,-0.1016,-0.1016,-0.1016,-0.1016,-0.1471,-0.143,-0.1457,-0.1366,-0.139,-0.1329,-0.1313,-0.127,-0.1248,-0.1146,-0.1114,-0.1129,-0.1127,-0.1151,-0.1066,-0.102,-0.103,-0.0975,-0.103,-0.1136,-0.1161,-0.1186,-0.1191,-0.0945,-0.0945,-0.0875,-0.0874,-0.0874]},{"header":{"parameterUnit":"m.s-1","parameterCategory":2,"la1":30.2991,"la2":30.254,"lo1":-89.0895,"lo2":-89.0444,"dy":0.0017,"dx":0.0017,"nx":28,"ny":28,"refTime":"2025-08-23T21:00:00:Z","depth":"0","parameterNumber":3,"parameterNumberName":"V-component_of_CURRENTS"},"data":[0,0,0,0,0,0,0,0,0,0,0,0,0,0,0,0,0,0,0,0,0,0,0,0,0,0,0,0,0,0,0,0,0,0,0,0,0,0,0,0,0,0,0,0,0,0,0,0,0,0,0,0,0,0,0,0,0,0,-0.0099,-0.0099,0,-0.0072,-0.0072,-0.0071,-0.0046,-0.0046,-0.0046,-0.0045,0.0049,0.0051,0.0053,0,0,0,0,0,0,0,0,0,0,0,0,0,-0.0102,-0.0102,-0.0099,-0.0099,-0.0098,-0.0072,-0.0072,-0.0071,-0.0046,-0.0046,-0.0046,-0.0045,0.0048,0.0051,0.0054,0,0,0,0,0,0,0,0,0,0,0,0,0,-0.0089,-0.0102,-0.0099,-0.0084,-0.0082,-0.0072,-0.0072,-0.0071,-0.0046,-0.0046,-0.0045,-0.0045,0.0047,0.005,0.0054,0.007,0,0,0.0065,0.0066,0,0,0,0,0,0,0,0,-0.009,-0.0089,-0.0086,-0.0085,-0.0083,-0.0063,-0.0038,-0.0021,-0.0046,-0.0058,-0.0045,-0.0045,0.0016,0.0022,0.0028,0.0075,0.0079,0.0065,0.0067,0.0069,0.007,0,0,0,0,0,0,0,-0.0091,-0.0089,-0.0087,-0.0086,-0.0084,-0.007,-0.0068,-0.0035,-0.002,-0.0057,-0.0056,-0.0055,0.0018,0.0024,0.0031,0.008,0.0065,0.0068,0.007,0.0072,0.0233,0.0235,0,0,0,0,0,0,-0.0099,-0.0091,-0.0088,-0.0086,-0.0088,-0.007,-0.0068,-0.0069,-0.0022,-0.0016,-0.0055,-0.0054,0.0018,0.0026,0.0034,0.0105,0.0069,0.0072,0.0074,0.023,0.0233,0.0235,0,0,0,0,0,0,-0.0099,-0.0099,-0.0089,-0.0089,-0.0087,-0.0071,-0.0072,-0.0068,-0.0062,-0.0022,-0.0014,-0.0052,0.0019,0.0029,0.0076,0.0107,0.0073,0.0077,0.0228,0.0231,0.0234,0.0216,0,0,0,0,0,0,-0.0099,-0.0099,-0.0101,-0.0089,-0.0087,-0.0081,-0.0072,-0.0068,-0.0063,-0.0061,-0.0016,-0.0008,0.002,0.0071,0.008,0.0111,0.0079,0.0225,0.0229,0.0233,0.0214,0.0218,0.0222,0,0,0,0,0,-0.0099,-0.0113,-0.0102,-0.0101,-0.0091,-0.0081,-0.0078,-0.0065,-0.0063,-0.0058,-0.002,-0.0009,0.0104,0.0075,0.0085,0.0118,0.0223,0.0228,0.0233,0.0212,0.0217,0.0222,0,0,0,0,0,0,-0.012,-0.0111,-0.0099,-0.011,-0.0092,-0.0077,-0.0079,-0.0068,-0.0037,-0.0034,0.0004,0.0017,0.0075,0.0102,0.0068,0.0182,0.0172,0.0179,0.0152,0.0158,0.0162,0.0149,0.0082,0,0,0,0,0,-0.0124,-0.0129,-0.0111,-0.0117,-0.0113,-0.0095,-0.009,-0.0078,-0.0053,-0.0041,-0.0003,0.0048,0.0104,0.0131,0.0179,0.0227,0.0243,0.0264,0.0268,0.0271,0.0272,0.0331,0.034,0.0251,0.0251,0.0251,0,0,-0.0135,-0.013,-0.0133,-0.0121,-0.0111,-0.0096,-0.0091,-0.0087,-0.0061,-0.0033,0.0014,0.0057,0.012,0.0183,0.0213,0.0207,0.0301,0.0277,0.0278,0.0278,0.0337,0.0345,0.0353,0.0255,0.0254,0.0254,0,0,-0.0157,-0.0153,-0.016,-0.0143,-0.0127,-0.0108,-0.0107,-0.0083,-0.0059,-0.0011,0.0027,0.0088,0.0159,0.0218,0.0256,0.0313,0.0319,0.0333,0.0341,0.0399,0.0406,0.0412,0.0415,0.0422,0.0336,0.0336,0.0336,0,-0.0168,-0.0176,-0.0159,-0.0154,-0.0144,-0.0113,-0.0109,-0.0073,-0.0029,-0.0004,0.0006,0.0137,0.0184,0.0274,0.0298,0.0321,0.0331,0.0308,0.04,0.0407,0.0414,0.0416,0.0424,0.0335,0.0335,0.0335,0.0335,0,-0.0185,-0.0189,-0.0194,-0.0169,-0.0149,-0.0148,-0.0095,-0.0065,-0.0031,0.001,0.0097,0.0172,0.0245,0.0284,0.0306,0.0389,0.037,0.0392,0.0375,0.0421,0.0421,0.0429,0.0335,0.0335,0.0335,0.0335,0,0,-0.0226,-0.0212,-0.0213,-0.0213,-0.0163,-0.0157,-0.0099,-0.0049,-0.0021,0.006,0.0115,0.0228,0.026,0.0306,0.0356,0.0414,0.0462,0.0416,0.0419,0.0395,0.0545,0.0486,0.0489,0.0492,0.0494,0.0496,0.0514,0,-0.0248,-0.0265,-0.0231,-0.0228,-0.0238,-0.0176,-0.0131,-0.007,-0.0007,0.0061,0.0166,0.0235,0.0273,0.0303,0.0375,0.0449,0.0488,0.0452,0.0526,0.0527,0.0451,0.0499,0.0527,0.0543,0.0522,0.0523,0.0524,0,-0.0275,-0.0289,-0.0305,-0.0285,-0.028,-0.0256,-0.0194,-0.0146,-0.0029,0.0023,0.0124,0.0199,0.0313,0.0334,0.0475,0.0445,0.0487,0.0539,0.0541,0.05,0.0485,0.0504,0.0558,0.0671,0.0537,0.0536,0.0535,0,-0.0344,-0.0338,-0.0363,-0.0354,-0.0315,-0.0301,-0.0267,-0.0169,-0.0127,-0.0004,0.004,0.0186,0.0252,0.036,0.0457,0.0467,0.0589,0.062,0.0602,0.0596,0.0642,0.0637,0.0799,0.0704,0.0704,0.0704,0.0704,0,-0.0397,-0.0414,-0.0405,-0.0422,-0.044,-0.0376,-0.0358,-0.0297,-0.0192,-0.0142,0.0002,0.0066,0.0262,0.0356,0.0448,0.0535,0.0577,0.0605,0.0611,0.0633,0.0627,0.0744,0.078,0.0705,0.0705,0.0705,0.0704,0,-0.0473,-0.0464,-0.0498,-0.0484,-0.048,-0.0495,-0.0437,-0.0411,-0.0311,-0.0234,-0.0198,-0.0019,0.0097,0.0253,0.0418,0.0499,0.065,0.0607,0.0586,0.0589,0.0685,0.0717,0.0824,0.0872,0.0616,0.0615,0.0614,0,-0.0514,-0.0544,-0.0566,-0.0588,-0.0587,-0.0591,-0.0581,-0.0487,-0.0444,-0.0298,-0.0262,-0.0129,-0.0032,0.0176,0.0349,0.0492,0.0585,0.0582,0.0627,0.0697,0.0739,0.0754,0.079,0.0675,0.0674,0.0674,0.0674,0,-0.0591,-0.0599,-0.0627,-0.0684,-0.0697,-0.0705,-0.0679,-0.0663,-0.054,-0.0472,-0.0372,-0.0287,-0.0074,0.0129,0.0311,0.0407,0.0657,0.0575,0.0699,0.0835,0.0818,0.0864,0.0612,0.0671,0.0671,0.0672,0.0672,0.0672,-0.0636,-0.068,-0.0716,-0.0764,-0.0785,-0.0797,-0.0798,-0.0751,-0.07,-0.0562,-0.0478,-0.0292,0.0001,0.0278,0.0369,0.0626,0.0609,0.0742,0.078,0.0793,0.0836,0.0529,0.056,0.056,0.056,0.0559,0.0559,0,-0.0682,-0.0725,-0.0783,-0.0831,-0.0865,-0.0855,-0.0836,-0.0803,-0.0757,-0.0607,-0.0499,-0.0105,0.0153,0.043,0.0753,0.0872,0.0921,0.0938,0.1032,0.1065,0.086,0.0862,0.0899,0.0899,0.0899,0.0899,0.0899,0.0898,-0.0701,-0.077,-0.0804,-0.088,-0.0909,-0.0927,-0.0916,-0.0855,-0.0735,-0.0494,-0.0229,-0.0015,0.0405,0.0843,0.1132,0.115,0.128,0.1229,0.1286,0.1216,0.1204,0.1191,0.1207,0.1316,0.1317,0.1513,0.1516,0.1517]}],[{"header":{"parameterUnit":"m.s-1","parameterCategory":2,"la1":30.2991,"la2":30.254,"lo1":-89.0895,"lo2":-89.0444,"dy":0.0017,"dx":0.0017,"nx":28,"ny":28,"refTime":"2025-08-23T21:00:00:Z","depth":"2","parameterNumber":2,"parameterNumberName":"U-component_of_CURRENTS"},"data":[0,0,0,0,0,0,0,0,0,0,0,0,0,0,0,0,0,0,0,0,0,0,0,0,0,0,0,0,0,0,0,0,0,0,0,0,0,0,0,0,0,0,0,0,0,0,0,0,0,0,0,0,0,0,0,0,0,0,-0.1685,-0.1686,0,-0.1757,-0.1758,-0.1759,-0.1718,-0.1716,-0.1714,-0.1712,-0.177,-0.1773,-0.1776,0,0,0,0,0,0,0,0,0,0,0,0,0,-0.1585,-0.1586,-0.1685,-0.1686,-0.1687,-0.1757,-0.1758,-0.1759,-0.1718,-0.1716,-0.1713,-0.1711,-0.1769,-0.1773,-0.1777,0,0,0,0,0,0,0,0,0,0,0,0,0,-0.1639,-0.1587,-0.1685,-0.1675,-0.1675,-0.1757,-0.1758,-0.1759,-0.1719,-0.1716,-0.1713,-0.171,-0.1767,-0.1772,-0.1777,-0.1868,0,0,-0.1793,-0.1795,0,0,0,0,0,0,0,0,-0.1636,-0.1643,-0.1676,-0.1676,-0.1676,-0.1726,-0.1744,-0.1795,-0.1719,-0.1701,-0.1712,-0.1708,-0.1756,-0.1762,-0.1782,-0.187,-0.1873,-0.1793,-0.1796,-0.1798,-0.18,0,0,0,0,0,0,0,-0.1632,-0.164,-0.1713,-0.1677,-0.1677,-0.1693,-0.1696,-0.1754,-0.1744,-0.1703,-0.17,-0.171,-0.1756,-0.1777,-0.1783,-0.1874,-0.1793,-0.1797,-0.1801,-0.1803,-0.1994,-0.1995,0,0,0,0,0,0,-0.1624,-0.1636,-0.1711,-0.1715,-0.1649,-0.1696,-0.1701,-0.1712,-0.1743,-0.1746,-0.1712,-0.1708,-0.177,-0.1777,-0.1785,-0.1864,-0.1798,-0.1803,-0.1806,-0.1992,-0.1994,-0.1996,0,0,0,0,0,0,-0.1622,-0.163,-0.1708,-0.1677,-0.1688,-0.1701,-0.1715,-0.1715,-0.1729,-0.1751,-0.1752,-0.1724,-0.1768,-0.1777,-0.1839,-0.1867,-0.1805,-0.181,-0.1989,-0.1992,-0.1995,-0.2043,0,0,0,0,0,0,-0.1619,-0.1629,-0.1635,-0.1677,-0.1689,-0.1756,-0.1718,-0.1719,-0.1741,-0.1735,-0.1763,-0.1765,-0.1766,-0.1832,-0.1844,-0.1873,-0.1814,-0.1987,-0.1991,-0.1994,-0.2039,-0.2047,-0.2054,0,0,0,0,0,-0.1615,-0.164,-0.1635,-0.1644,-0.1697,-0.1758,-0.1767,-0.1765,-0.1744,-0.1764,-0.1782,-0.1763,-0.1863,-0.1839,-0.1853,-0.1883,-0.1985,-0.1989,-0.1994,-0.2035,-0.2046,-0.2054,0,0,0,0,0,0,-0.16,-0.164,-0.1635,-0.1669,-0.1708,-0.1751,-0.1771,-0.1776,-0.1809,-0.1801,-0.1807,-0.1814,-0.1874,-0.1883,-0.1855,-0.1949,-0.1916,-0.1923,-0.1942,-0.1952,-0.196,-0.194,-0.1818,0,0,0,0,0,-0.1602,-0.1627,-0.1669,-0.1697,-0.1716,-0.1746,-0.1769,-0.1777,-0.1812,-0.1822,-0.1849,-0.1875,-0.1911,-0.1932,-0.197,-0.2039,-0.1998,-0.2063,-0.207,-0.2077,-0.2071,-0.2039,-0.2042,-0.2011,-0.2011,-0.2011,0,0,-0.1604,-0.1629,-0.1643,-0.1695,-0.1722,-0.1767,-0.1752,-0.1798,-0.1828,-0.1829,-0.1885,-0.1914,-0.1937,-0.2,-0.2027,-0.2007,-0.2065,-0.2083,-0.2088,-0.2078,-0.2044,-0.2046,-0.2048,-0.2014,-0.2014,-0.2013,0,0,-0.1631,-0.1645,-0.1676,-0.1716,-0.1765,-0.1789,-0.1803,-0.1861,-0.187,-0.1938,-0.1938,-0.1981,-0.2051,-0.2068,-0.2082,-0.2163,-0.211,-0.218,-0.2204,-0.2174,-0.2175,-0.2175,-0.2117,-0.2112,-0.2181,-0.2181,-0.2181,0,-0.1634,-0.1672,-0.1697,-0.1744,-0.1782,-0.1798,-0.1852,-0.1874,-0.1945,-0.1966,-0.1954,-0.2054,-0.2074,-0.2135,-0.2156,-0.2178,-0.2141,-0.2163,-0.218,-0.218,-0.2179,-0.2119,-0.2113,-0.2184,-0.2183,-0.2183,-0.2183,0,-0.1682,-0.1718,-0.1746,-0.1801,-0.1852,-0.1901,-0.1943,-0.1985,-0.2,-0.2019,-0.2086,-0.2122,-0.2169,-0.2191,-0.2197,-0.2228,-0.2195,-0.2192,-0.2146,-0.2184,-0.212,-0.2112,-0.2188,-0.2187,-0.2186,-0.2185,0,0,-0.1682,-0.176,-0.1771,-0.1805,-0.1887,-0.1934,-0.1994,-0.2052,-0.2067,-0.2124,-0.2158,-0.2224,-0.223,-0.2248,-0.227,-0.2252,-0.2218,-0.2225,-0.2222,-0.2148,-0.2126,-0.2053,-0.2037,-0.2215,-0.2214,-0.2214,-0.2077,0,-0.1711,-0.179,-0.1835,-0.1919,-0.1966,-0.2019,-0.2066,-0.212,-0.2143,-0.2178,-0.2205,-0.2237,-0.2252,-0.2273,-0.2266,-0.2238,-0.2203,-0.2254,-0.2116,-0.2111,-0.2026,-0.2028,-0.191,-0.1775,-0.2069,-0.2068,-0.2067,0,-0.1736,-0.1793,-0.1874,-0.1966,-0.1992,-0.2045,-0.2124,-0.2166,-0.2208,-0.2228,-0.227,-0.2271,-0.2293,-0.2279,-0.2226,-0.2257,-0.2194,-0.2154,-0.2147,-0.2054,-0.2024,-0.1789,-0.175,-0.2053,-0.2054,-0.2055,-0.2056,0,-0.1707,-0.1818,-0.1877,-0.1914,-0.202,-0.2071,-0.2122,-0.2181,-0.2193,-0.2249,-0.2245,-0.2284,-0.227,-0.2232,-0.2158,-0.2185,-0.2057,-0.2079,-0.1948,-0.1941,-0.18,-0.1781,-0.2009,-0.2009,-0.2009,-0.201,-0.201,0,-0.1711,-0.1759,-0.1864,-0.1898,-0.1956,-0.2057,-0.2102,-0.2149,-0.2201,-0.2184,-0.2252,-0.2224,-0.225,-0.2184,-0.2139,-0.2006,-0.2033,-0.1936,-0.1901,-0.1814,-0.18,-0.2017,-0.202,-0.2004,-0.2005,-0.2006,-0.2007,0,-0.1651,-0.1722,-0.178,-0.1899,-0.1933,-0.1969,-0.2061,-0.2071,-0.214,-0.2122,-0.213,-0.2155,-0.2079,-0.2066,-0.198,-0.1943,-0.185,-0.1788,-0.1675,-0.163,-0.1759,-0.1766,-0.1639,-0.1636,-0.1633,-0.163,-0.1628,0,-0.1617,-0.1643,-0.174,-0.175,-0.1798,-0.1874,-0.1899,-0.2015,-0.2016,-0.2041,-0.2001,-0.1967,-0.1903,-0.1781,-0.1728,-0.1633,-0.1707,-0.1458,-0.1503,-0.1742,-0.1721,-0.1734,-0.1745,-0.1325,-0.132,-0.1317,-0.1314,0,-0.1536,-0.156,-0.1598,-0.1625,-0.1659,-0.1699,-0.1753,-0.1758,-0.1851,-0.1843,-0.1791,-0.1754,-0.1667,-0.1536,-0.1449,-0.1384,-0.1484,-0.1379,-0.163,-0.1453,-0.1439,-0.1421,-0.1444,-0.1281,-0.1284,-0.1287,-0.1288,-0.129,-0.1435,-0.1426,-0.1458,-0.1474,-0.1501,-0.1504,-0.15,-0.155,-0.1548,-0.1517,-0.1553,-0.1463,-0.1452,-0.1266,-0.1176,-0.1126,-0.1237,-0.119,-0.1204,-0.1221,-0.1226,-0.1209,-0.1006,-0.1007,-0.1009,-0.101,-0.1011,0,-0.1302,-0.1306,-0.1303,-0.1318,-0.129,-0.136,-0.1371,-0.1347,-0.1304,-0.1297,-0.126,-0.1109,-0.1016,-0.1009,-0.0883,-0.0855,-0.0879,-0.0816,-0.0855,-0.0887,-0.0916,-0.0909,-0.0602,-0.0601,-0.06,-0.0599,0,0,-0.1229,-0.1182,-0.119,-0.111,-0.1115,-0.1057,-0.104,-0.1011,-0.0997,-0.0928,-0.0889,-0.0954,-0.097,-0.0788,-0.0745,-0.0651,-0.0765,-0.0615,-0.0942,-0.102,-0.1047,-0.1126,-0.115,0,0,0,0,0]},{"header":{"parameterUnit":"m.s-1","parameterCategory":2,"la1":30.2991,"la2":30.254,"lo1":-89.0895,"lo2":-89.0444,"dy":0.0017,"dx":0.0017,"nx":28,"ny":28,"refTime":"2025-08-23T21:00:00:Z","depth":"2","parameterNumber":3,"parameterNumberName":"V-component_of_CURRENTS"},"data":[0,0,0,0,0,0,0,0,0,0,0,0,0,0,0,0,0,0,0,0,0,0,0,0,0,0,0,0,0,0,0,0,0,0,0,0,0,0,0,0,0,0,0,0,0,0,0,0,0,0,0,0,0,0,0,0,0,0,-0.016,-0.016,0,-0.0165,-0.0165,-0.0166,-0.0134,-0.0133,-0.0132,-0.0131,-0.0079,-0.0078,-0.0078,0,0,0,0,0,0,0,0,0,0,0,0,0,-0.0152,-0.0152,-0.016,-0.016,-0.016,-0.0165,-0.0165,-0.0166,-0.0134,-0.0133,-0.0131,-0.013,-0.0079,-0.0078,-0.0078,0,0,0,0,0,0,0,0,0,0,0,0,0,-0.0157,-0.0152,-0.016,-0.0144,-0.0143,-0.0165,-0.0165,-0.0166,-0.0134,-0.0133,-0.0131,-0.013,-0.0079,-0.0078,-0.0078,-0.0103,0,0,-0.0076,-0.0075,0,0,0,0,0,0,0,0,-0.0157,-0.0157,-0.0146,-0.0145,-0.0143,-0.0147,-0.0144,-0.0142,-0.0134,-0.0138,-0.0131,-0.0129,-0.0097,-0.0095,-0.0101,-0.01,-0.0098,-0.0076,-0.0075,-0.0075,-0.0075,0,0,0,0,0,0,0,-0.0156,-0.0157,-0.0163,-0.0146,-0.0145,-0.0147,-0.0146,-0.0144,-0.0125,-0.0138,-0.0135,-0.0135,-0.0095,-0.0102,-0.0099,-0.0097,-0.0076,-0.0075,-0.0075,-0.0074,-0.0003,-0.0002,0,0,0,0,0,0,-0.0154,-0.0157,-0.0162,-0.0163,-0.0146,-0.0148,-0.0147,-0.0148,-0.0126,-0.0122,-0.0136,-0.0134,-0.0103,-0.01,-0.0097,-0.0044,-0.0075,-0.0074,-0.0074,-0.0004,-0.0003,-0.0001,0,0,0,0,0,0,-0.0154,-0.0155,-0.0162,-0.0159,-0.016,-0.015,-0.0151,-0.0149,-0.0147,-0.0126,-0.012,-0.0136,-0.0102,-0.0098,-0.0083,-0.0045,-0.0074,-0.0073,-0.0006,-0.0004,-0.0002,0.001,0,0,0,0,0,0,-0.0154,-0.0155,-0.0157,-0.0159,-0.016,-0.018,-0.0152,-0.015,-0.0149,-0.0145,-0.0124,-0.0118,-0.0101,-0.0084,-0.0082,-0.0044,-0.0073,-0.0008,-0.0005,-0.0003,0.0008,0.0012,0.0016,0,0,0,0,0,-0.0154,-0.0171,-0.0157,-0.0157,-0.0162,-0.0181,-0.0182,-0.017,-0.0151,-0.0161,-0.0132,-0.0118,-0.0063,-0.0084,-0.0082,-0.0042,-0.0009,-0.0006,-0.0003,0.0006,0.0011,0.0016,0,0,0,0,0,0,-0.0173,-0.0169,-0.0154,-0.0168,-0.0172,-0.0175,-0.0185,-0.0173,-0.0162,-0.0153,-0.0123,-0.0116,-0.0075,-0.007,-0.0093,-0.001,-0.0025,-0.0021,-0.0019,-0.0013,-0.0009,-0.0022,-0.0072,0,0,0,0,0,-0.0177,-0.0183,-0.018,-0.0191,-0.0195,-0.0188,-0.0193,-0.0185,-0.0176,-0.017,-0.0148,-0.0111,-0.0064,-0.005,-0.0021,-0.0003,0.0004,0.0033,0.0037,0.0041,0.0034,0.0095,0.0104,0.001,0.001,0.001,0,0,-0.0187,-0.0185,-0.0189,-0.0195,-0.0196,-0.0213,-0.0188,-0.0202,-0.0203,-0.0167,-0.0157,-0.0103,-0.0055,-0.0013,0.0007,-0.0005,0.0067,0.0045,0.0047,0.0039,0.01,0.0109,0.0117,0.0012,0.0012,0.0011,0,0,-0.0224,-0.021,-0.0232,-0.0235,-0.0239,-0.0235,-0.0238,-0.0236,-0.0221,-0.0215,-0.0154,-0.0082,-0.006,0.0011,0.0045,0.0084,0.0091,0.0103,0.0107,0.0167,0.0174,0.0181,0.0175,0.0181,0.0101,0.0101,0.0101,0,-0.0236,-0.0259,-0.0243,-0.0264,-0.0266,-0.0246,-0.0268,-0.0259,-0.0247,-0.022,-0.0213,-0.008,-0.0041,0.0063,0.0086,0.0096,0.0102,0.0081,0.0171,0.0178,0.0185,0.0177,0.0184,0.0102,0.0102,0.0102,0.0101,0,-0.0287,-0.0303,-0.0319,-0.0329,-0.0328,-0.035,-0.0328,-0.0314,-0.0285,-0.0259,-0.0161,-0.0082,0.0002,0.0048,0.007,0.017,0.0146,0.0172,0.0152,0.0195,0.0184,0.0191,0.0103,0.0103,0.0102,0.0102,0,0,-0.032,-0.0351,-0.0354,-0.0366,-0.0362,-0.037,-0.0355,-0.033,-0.0307,-0.0246,-0.0185,-0.0062,0.0006,0.0051,0.0133,0.0193,0.0245,0.0194,0.0197,0.0176,0.0325,0.0309,0.0314,0.0286,0.0288,0.029,0.0286,0,-0.0366,-0.0425,-0.0413,-0.0449,-0.0476,-0.0431,-0.0423,-0.0384,-0.0336,-0.0277,-0.014,-0.0064,-0.0,0.0061,0.014,0.0235,0.0268,0.024,0.0297,0.0297,0.027,0.0325,0.0328,0.0327,0.0293,0.0294,0.0295,0,-0.0413,-0.0449,-0.0502,-0.0509,-0.0512,-0.0518,-0.047,-0.0458,-0.036,-0.0315,-0.0186,-0.0098,0.0048,0.0077,0.0245,0.0222,0.0259,0.0316,0.0318,0.0304,0.0296,0.0287,0.0341,0.0306,0.0306,0.0305,0.0304,0,-0.0451,-0.0497,-0.054,-0.0546,-0.0558,-0.0546,-0.0534,-0.0464,-0.0439,-0.0324,-0.028,-0.0106,-0.001,0.0099,0.0217,0.0229,0.036,0.0391,0.0402,0.0398,0.0412,0.0407,0.0467,0.0467,0.0467,0.0467,0.0467,0,-0.05,-0.0532,-0.0565,-0.0591,-0.0624,-0.0595,-0.0589,-0.0549,-0.0471,-0.0427,-0.0295,-0.0211,-0.0,0.0107,0.0198,0.0319,0.0342,0.0404,0.0415,0.0413,0.0408,0.0406,0.0399,0.0467,0.0467,0.0467,0.0467,0,-0.0535,-0.0562,-0.0614,-0.0641,-0.065,-0.0665,-0.0645,-0.063,-0.0559,-0.0485,-0.0448,-0.0279,-0.0133,0.0029,0.0201,0.0289,0.04,0.0413,0.0362,0.0369,0.0392,0.0386,0.045,0.045,0.0449,0.0449,0.0449,0,-0.0564,-0.06,-0.0656,-0.0686,-0.0701,-0.0719,-0.0728,-0.0678,-0.0648,-0.0526,-0.0486,-0.0336,-0.0207,0.0023,0.0199,0.0346,0.0357,0.0407,0.0455,0.0396,0.04,0.0393,0.0388,0.0459,0.0459,0.0459,0.0459,0,-0.0615,-0.063,-0.0671,-0.0741,-0.0769,-0.0792,-0.0788,-0.0781,-0.0701,-0.0633,-0.0518,-0.0412,-0.0181,0.0031,0.021,0.03,0.04,0.041,0.0396,0.0462,0.0405,0.0408,0.0402,0.0458,0.0458,0.0458,0.0458,0.0458,-0.0639,-0.0679,-0.073,-0.0786,-0.082,-0.084,-0.0847,-0.0813,-0.0767,-0.0633,-0.0541,-0.0345,-0.0166,0.0141,0.0253,0.0378,0.039,0.0449,0.045,0.045,0.0451,0.0399,0.0446,0.0446,0.0446,0.0446,0.0446,0,-0.0671,-0.0713,-0.0771,-0.0831,-0.0865,-0.0873,-0.0869,-0.0841,-0.0778,-0.0627,-0.049,-0.0252,-0.0032,0.014,0.0341,0.0442,0.0453,0.0456,0.0464,0.0464,0.0464,0.0467,0.0465,0.0465,0.0465,0.0465,0,0,-0.0687,-0.0751,-0.0784,-0.0854,-0.0887,-0.0912,-0.0906,-0.0838,-0.0727,-0.0572,-0.0403,-0.0198,0.001,0.0154,0.0278,0.0379,0.0391,0.0386,0.0365,0.0358,0.0357,0.0458,0.0461,0,0,0,0,0]}],[{"header":{"parameterUnit":"m.s-1","parameterCategory":2,"la1":30.2991,"la2":30.254,"lo1":-89.0895,"lo2":-89.0444,"dy":0.0017,"dx":0.0017,"nx":28,"ny":28,"refTime":"2025-08-23T21:00:00:Z","depth":"4","parameterNumber":2,"parameterNumberName":"U-component_of_CURRENTS"},"data":[0,0,0,0,0,0,0,0,0,0,0,0,0,0,0,0,0,0,0,0,0,0,0,0,0,0,0,0,0,0,0,0,0,0,0,0,0,0,0,0,0,0,0,0,0,0,0,0,0,0,0,0,0,0,0,0,0,0,-0.1168,-0.1169,0,-0.1196,-0.1196,-0.1196,-0.1204,-0.1204,-0.1204,-0.1205,-0.116,-0.1159,-0.1157,0,0,0,0,0,0,0,0,0,0,0,0,0,-0.1086,-0.1088,-0.1168,-0.1169,-0.1169,-0.1196,-0.1196,-0.1196,-0.1204,-0.1204,-0.1204,-0.1205,-0.116,-0.1159,-0.1157,0,0,0,0,0,0,0,0,0,0,0,0,0,-0.1115,-0.1088,-0.1168,-0.1179,-0.1181,-0.1196,-0.1196,-0.1196,-0.1204,-0.1204,-0.1205,-0.1205,-0.1161,-0.1159,-0.1157,-0.1139,0,0,-0.1151,-0.115,0,0,0,0,0,0,0,0,-0.1114,-0.1118,-0.1177,-0.1179,-0.1181,-0.12,-0.1151,-0.1175,-0.1204,-0.1191,-0.1205,-0.1205,-0.1169,-0.1166,-0.1167,-0.1137,-0.1135,-0.1151,-0.1149,-0.1148,-0.1148,0,0,0,0,0,0,0,-0.1112,-0.1117,-0.1175,-0.1178,-0.118,-0.1171,-0.1176,-0.1155,-0.1174,-0.1192,-0.1194,-0.1203,-0.1169,-0.1169,-0.1165,-0.1134,-0.1151,-0.1149,-0.1148,-0.1147,-0.1118,-0.1118,0,0,0,0,0,0,-0.1118,-0.1115,-0.1175,-0.1177,-0.1151,-0.1173,-0.1178,-0.119,-0.1176,-0.1175,-0.1203,-0.1203,-0.1172,-0.1168,-0.1164,-0.1177,-0.1148,-0.1147,-0.1145,-0.1117,-0.1118,-0.1118,0,0,0,0,0,0,-0.1116,-0.1123,-0.1173,-0.1149,-0.1155,-0.1175,-0.1189,-0.1191,-0.1209,-0.1185,-0.1183,-0.1221,-0.1172,-0.1167,-0.1155,-0.1174,-0.1146,-0.1144,-0.1117,-0.1117,-0.1118,-0.1179,0,0,0,0,0,0,-0.1113,-0.1122,-0.1139,-0.115,-0.1157,-0.1182,-0.1189,-0.1191,-0.1215,-0.1216,-0.1199,-0.1195,-0.1172,-0.1159,-0.1153,-0.117,-0.1142,-0.1116,-0.1117,-0.1118,-0.1177,-0.1182,-0.1187,0,0,0,0,0,-0.111,-0.1132,-0.1139,-0.1147,-0.1178,-0.1183,-0.1185,-0.1197,-0.1216,-0.1216,-0.1211,-0.1196,-0.116,-0.1157,-0.1151,-0.1168,-0.1116,-0.1117,-0.1118,-0.1175,-0.1181,-0.1186,0,0,0,0,0,0,-0.1107,-0.1136,-0.1144,-0.1174,-0.1178,-0.1185,-0.12,-0.1209,-0.1209,-0.1217,-0.1197,-0.1191,-0.1183,-0.1168,-0.1165,-0.1161,-0.1137,-0.1137,-0.1183,-0.1189,-0.1193,-0.1169,-0.114,0,0,0,0,0,-0.1114,-0.114,-0.1152,-0.1176,-0.1183,-0.1196,-0.1206,-0.121,-0.1212,-0.1215,-0.1206,-0.1196,-0.118,-0.118,-0.1153,-0.1156,-0.1137,-0.1164,-0.1169,-0.1173,-0.1149,-0.1165,-0.1169,-0.1122,-0.1122,-0.1122,0,0,-0.1123,-0.1141,-0.1158,-0.1177,-0.1188,-0.1184,-0.1202,-0.1219,-0.122,-0.1207,-0.1213,-0.1203,-0.118,-0.1176,-0.1174,-0.1171,-0.1176,-0.1175,-0.1179,-0.1151,-0.1167,-0.1171,-0.1175,-0.1122,-0.1122,-0.1122,0,0,-0.1127,-0.1167,-0.1173,-0.1176,-0.1192,-0.1196,-0.1205,-0.1217,-0.1232,-0.1234,-0.1225,-0.1206,-0.1213,-0.1177,-0.1167,-0.1177,-0.1192,-0.1213,-0.1232,-0.1249,-0.1253,-0.1256,-0.1238,-0.1239,-0.123,-0.123,-0.123,0,-0.1136,-0.1141,-0.1174,-0.1168,-0.1171,-0.1202,-0.1189,-0.1209,-0.1215,-0.1227,-0.1239,-0.1226,-0.1191,-0.1177,-0.1188,-0.1181,-0.1216,-0.1216,-0.1257,-0.1259,-0.1262,-0.1242,-0.1242,-0.1233,-0.1233,-0.1232,-0.1232,0,-0.1119,-0.1129,-0.1137,-0.1139,-0.1145,-0.1148,-0.1168,-0.119,-0.1222,-0.1234,-0.1244,-0.1212,-0.1202,-0.1206,-0.1203,-0.1216,-0.1242,-0.1254,-0.1244,-0.127,-0.1248,-0.1247,-0.1237,-0.1236,-0.1235,-0.1235,0,0,-0.1126,-0.1124,-0.1128,-0.1124,-0.113,-0.1138,-0.1153,-0.1169,-0.1194,-0.1216,-0.1229,-0.1205,-0.1221,-0.1207,-0.121,-0.1227,-0.1255,-0.1279,-0.1278,-0.1263,-0.1317,-0.1252,-0.1245,-0.1334,-0.1334,-0.1335,-0.1295,0,-0.1099,-0.1076,-0.1083,-0.1075,-0.1066,-0.11,-0.1116,-0.1143,-0.1173,-0.1198,-0.12,-0.1211,-0.1221,-0.1238,-0.1253,-0.1245,-0.1261,-0.1264,-0.1289,-0.1286,-0.123,-0.1243,-0.1335,-0.1294,-0.1294,-0.1294,-0.1294,0,-0.1072,-0.1061,-0.1035,-0.1051,-0.1056,-0.1061,-0.11,-0.1122,-0.1165,-0.1192,-0.1213,-0.1235,-0.1227,-0.1249,-0.1253,-0.1291,-0.1306,-0.1306,-0.1305,-0.1214,-0.1221,-0.1261,-0.1292,-0.1292,-0.1292,-0.1293,-0.1293,0,-0.1052,-0.1039,-0.1021,-0.1021,-0.1036,-0.1054,-0.1081,-0.1122,-0.1148,-0.1198,-0.1217,-0.1235,-0.1233,-0.1271,-0.1273,-0.13,-0.1289,-0.1303,-0.1246,-0.1241,-0.1285,-0.1281,-0.1312,-0.1312,-0.1312,-0.1312,-0.1312,0,-0.1023,-0.1022,-0.1019,-0.1016,-0.1025,-0.105,-0.1072,-0.1118,-0.1149,-0.1173,-0.1226,-0.1233,-0.1261,-0.1268,-0.1281,-0.1249,-0.1291,-0.1226,-0.1227,-0.131,-0.1311,-0.1284,-0.1281,-0.1311,-0.1311,-0.1311,-0.1312,0,-0.1014,-0.1006,-0.1001,-0.101,-0.1016,-0.1038,-0.1067,-0.1081,-0.1139,-0.1161,-0.1187,-0.1229,-0.1245,-0.1252,-0.1263,-0.1228,-0.1216,-0.1205,-0.1266,-0.1274,-0.115,-0.1151,-0.1108,-0.1105,-0.1103,-0.1101,-0.11,0,-0.0995,-0.0987,-0.0999,-0.0996,-0.1004,-0.1021,-0.1027,-0.1074,-0.1082,-0.1157,-0.1161,-0.1199,-0.1221,-0.1159,-0.1185,-0.1168,-0.1176,-0.1142,-0.1156,-0.1125,-0.113,-0.1134,-0.1138,-0.1096,-0.1095,-0.1095,-0.1094,0,-0.0956,-0.0979,-0.0979,-0.0972,-0.0973,-0.0973,-0.099,-0.0986,-0.1047,-0.1093,-0.1118,-0.1127,-0.1121,-0.1114,-0.1105,-0.1107,-0.1141,-0.1119,-0.1123,-0.1136,-0.111,-0.1119,-0.1125,-0.1087,-0.1088,-0.1088,-0.1089,0,-0.0929,-0.0928,-0.0928,-0.092,-0.0936,-0.0926,-0.0938,-0.0938,-0.0954,-0.1035,-0.1036,-0.1087,-0.1117,-0.1083,-0.1086,-0.1063,-0.1051,-0.1014,-0.1024,-0.1033,-0.1028,-0.0985,-0.0908,0,0,0,0,0,-0.0866,-0.0854,-0.0858,-0.0842,-0.0874,-0.087,-0.0908,-0.0921,-0.0962,-0.0959,-0.0998,-0.1009,-0.1005,-0.1025,-0.0985,-0.1042,-0.1048,-0.099,-0.1011,-0.1044,-0.1053,-0.1055,0,0,0,0,0,0,-0.0814,-0.0821,-0.0825,-0.0781,-0.0765,-0.0773,-0.0797,-0.0832,-0.0833,-0.0893,-0.0899,-0.0939,-0.0948,-0.101,-0.096,-0.0963,-0.0955,-0.1013,-0.101,-0.1039,-0.1047,-0.1054,-0.1059,0,0,0,0,0]},{"header":{"parameterUnit":"m.s-1","parameterCategory":2,"la1":30.2991,"la2":30.254,"lo1":-89.0895,"lo2":-89.0444,"dy":0.0017,"dx":0.0017,"nx":28,"ny":28,"refTime":"2025-08-23T21:00:00:Z","depth":"4","parameterNumber":3,"parameterNumberName":"V-component_of_CURRENTS"},"data":[0,0,0,0,0,0,0,0,0,0,0,0,0,0,0,0,0,0,0,0,0,0,0,0,0,0,0,0,0,0,0,0,0,0,0,0,0,0,0,0,0,0,0,0,0,0,0,0,0,0,0,0,0,0,0,0,0,0,-0.0156,-0.0156,0,-0.0178,-0.0179,-0.0179,-0.0154,-0.0153,-0.0152,-0.0151,-0.0188,-0.019,-0.0192,0,0,0,0,0,0,0,0,0,0,0,0,0,-0.0143,-0.0144,-0.0156,-0.0156,-0.0156,-0.0178,-0.0179,-0.0179,-0.0154,-0.0153,-0.0151,-0.015,-0.0187,-0.0189,-0.0192,0,0,0,0,0,0,0,0,0,0,0,0,0,-0.0157,-0.0144,-0.0156,-0.0145,-0.0144,-0.0178,-0.0179,-0.0179,-0.0154,-0.0153,-0.0151,-0.015,-0.0186,-0.0189,-0.0192,-0.0245,0,0,-0.0202,-0.0203,0,0,0,0,0,0,0,0,-0.0156,-0.0158,-0.0147,-0.0146,-0.0145,-0.016,-0.0188,-0.0201,-0.0155,-0.0153,-0.0151,-0.0149,-0.018,-0.0183,-0.0194,-0.0246,-0.0248,-0.0202,-0.0204,-0.0205,-0.0206,0,0,0,0,0,0,0,-0.0156,-0.0157,-0.0167,-0.0147,-0.0146,-0.0157,-0.0156,-0.0191,-0.0177,-0.0153,-0.015,-0.0151,-0.018,-0.0191,-0.0194,-0.0248,-0.0202,-0.0204,-0.0206,-0.0208,-0.0358,-0.036,0,0,0,0,0,0,-0.0148,-0.0156,-0.0166,-0.0167,-0.0145,-0.0158,-0.0158,-0.0158,-0.0176,-0.0177,-0.0152,-0.0149,-0.0186,-0.0191,-0.0196,-0.0264,-0.0205,-0.0208,-0.021,-0.0356,-0.0359,-0.0361,0,0,0,0,0,0,-0.0148,-0.0149,-0.0165,-0.0161,-0.0163,-0.0159,-0.0161,-0.016,-0.0164,-0.0175,-0.0176,-0.0156,-0.0185,-0.0191,-0.023,-0.0265,-0.0209,-0.0212,-0.0354,-0.0357,-0.036,-0.0398,0,0,0,0,0,0,-0.0148,-0.0149,-0.0151,-0.016,-0.0163,-0.0194,-0.0162,-0.0161,-0.0166,-0.0163,-0.018,-0.0181,-0.0184,-0.0226,-0.0233,-0.0268,-0.0214,-0.0351,-0.0355,-0.0359,-0.0394,-0.0402,-0.0409,0,0,0,0,0,-0.0147,-0.0163,-0.0151,-0.0153,-0.0165,-0.0195,-0.0199,-0.0191,-0.0168,-0.0185,-0.0191,-0.018,-0.0257,-0.023,-0.0238,-0.0275,-0.0349,-0.0354,-0.0359,-0.039,-0.04,-0.0409,0,0,0,0,0,0,-0.0163,-0.0162,-0.0149,-0.0164,-0.0178,-0.019,-0.0204,-0.0195,-0.0214,-0.0208,-0.0207,-0.0212,-0.0263,-0.0268,-0.0238,-0.0333,-0.0303,-0.031,-0.0324,-0.0334,-0.0341,-0.0342,-0.0217,0,0,0,0,0,-0.0166,-0.0173,-0.0179,-0.0191,-0.0198,-0.02,-0.0209,-0.0207,-0.0221,-0.0226,-0.0236,-0.0257,-0.0294,-0.0309,-0.0343,-0.0393,-0.0354,-0.0424,-0.0432,-0.0438,-0.0447,-0.0429,-0.0434,-0.0377,-0.0377,-0.0377,0,0,-0.0175,-0.0175,-0.0179,-0.0195,-0.0202,-0.0235,-0.0202,-0.0225,-0.0249,-0.0231,-0.027,-0.0288,-0.0315,-0.0371,-0.0395,-0.0375,-0.0426,-0.0444,-0.0449,-0.0455,-0.0434,-0.0439,-0.0444,-0.0381,-0.038,-0.0379,0,0,-0.021,-0.0198,-0.0221,-0.0237,-0.0251,-0.026,-0.0266,-0.0282,-0.0285,-0.0328,-0.0324,-0.0366,-0.0409,-0.0443,-0.0464,-0.054,-0.047,-0.0541,-0.0576,-0.0558,-0.0562,-0.0565,-0.0475,-0.047,-0.054,-0.054,-0.054,0,-0.022,-0.0244,-0.0236,-0.0267,-0.0284,-0.0274,-0.0313,-0.0326,-0.0352,-0.0361,-0.0348,-0.0428,-0.0454,-0.0524,-0.0548,-0.0559,-0.0496,-0.0533,-0.0564,-0.0567,-0.0569,-0.0477,-0.047,-0.0542,-0.0542,-0.0542,-0.0542,0,-0.0274,-0.0295,-0.0313,-0.0344,-0.0368,-0.0398,-0.0413,-0.0434,-0.0432,-0.0439,-0.0494,-0.0531,-0.0571,-0.0595,-0.0594,-0.0637,-0.0565,-0.0574,-0.0531,-0.0576,-0.0476,-0.0469,-0.0546,-0.0545,-0.0544,-0.0544,0,0,-0.0294,-0.0341,-0.0347,-0.037,-0.0406,-0.0432,-0.0477,-0.0512,-0.0524,-0.0558,-0.0585,-0.0666,-0.0656,-0.0681,-0.0689,-0.0684,-0.0641,-0.0627,-0.0624,-0.0518,-0.0521,-0.0462,-0.0446,-0.063,-0.063,-0.063,-0.0426,0,-0.0338,-0.0404,-0.0419,-0.0486,-0.052,-0.0528,-0.0569,-0.0595,-0.06,-0.0622,-0.0657,-0.0689,-0.0694,-0.0705,-0.0708,-0.0666,-0.0629,-0.0691,-0.0512,-0.0506,-0.0433,-0.0442,-0.0631,-0.042,-0.0418,-0.0417,-0.0416,0,-0.0383,-0.0422,-0.0493,-0.0544,-0.056,-0.0601,-0.0642,-0.0671,-0.0693,-0.0695,-0.0724,-0.0719,-0.0745,-0.0735,-0.0669,-0.0689,-0.0608,-0.0565,-0.0556,-0.0489,-0.0436,-0.0381,-0.0402,-0.0403,-0.0404,-0.0405,-0.0406,0,-0.0395,-0.0468,-0.0523,-0.0544,-0.0608,-0.0639,-0.0668,-0.0695,-0.0707,-0.0726,-0.0719,-0.0742,-0.0731,-0.0678,-0.0586,-0.0607,-0.0468,-0.049,-0.0352,-0.0342,-0.0436,-0.0436,-0.0428,-0.0428,-0.0429,-0.0429,-0.043,0,-0.0427,-0.0471,-0.0533,-0.0564,-0.0625,-0.0657,-0.0702,-0.0724,-0.0744,-0.0742,-0.0746,-0.0729,-0.071,-0.0627,-0.056,-0.0411,-0.0436,-0.0348,-0.0302,-0.0451,-0.0455,-0.0426,-0.0429,-0.0422,-0.0423,-0.0425,-0.0426,0,-0.0434,-0.0473,-0.0536,-0.0608,-0.0633,-0.0671,-0.0721,-0.0741,-0.0745,-0.0738,-0.0739,-0.0695,-0.0574,-0.0511,-0.0395,-0.035,-0.0242,-0.0176,-0.0276,-0.024,-0.0123,-0.0131,-0.0008,-0.0005,-0.0002,0.0,0.0002,0,-0.0445,-0.0479,-0.0559,-0.0595,-0.0631,-0.0686,-0.0721,-0.0749,-0.0753,-0.0698,-0.0687,-0.0573,-0.0527,-0.0293,-0.0251,-0.0092,-0.009,-0.0016,-0.0148,-0.0121,-0.0088,-0.01,-0.0111,0.0007,0.0008,0.0009,0.0009,0,-0.0466,-0.0491,-0.0539,-0.0609,-0.0657,-0.0699,-0.0737,-0.0735,-0.0731,-0.0729,-0.0603,-0.0498,-0.0345,-0.0238,-0.0099,-0.0008,-0.0078,0.0014,0.0007,-0.0117,-0.0101,-0.0073,-0.0088,0.0019,0.0018,0.0017,0.0016,0,-0.0472,-0.0505,-0.0563,-0.062,-0.0674,-0.0695,-0.0715,-0.0694,-0.0687,-0.0621,-0.0563,-0.0421,-0.0352,-0.0185,-0.0067,0.0033,0.0029,0.0023,0.0015,0.0004,-0.0088,-0.0071,0.0107,0,0,0,0,0,-0.0476,-0.0515,-0.0573,-0.0631,-0.0677,-0.0705,-0.0723,-0.0729,-0.0707,-0.0607,-0.0584,-0.0435,-0.0238,-0.0162,-0.0045,-0.0048,0.0021,0.0088,0.0003,0.0075,0.0064,-0.0048,0,0,0,0,0,0,-0.0481,-0.0538,-0.0571,-0.0624,-0.066,-0.0704,-0.0709,-0.0692,-0.0633,-0.0589,-0.048,-0.0419,-0.0234,-0.0299,-0.0045,-0.0016,-0.0056,0.0174,0.0177,0.0082,0.0071,0.0062,-0.0057,0,0,0,0,0]}]]